User: anonymous   Login
Location: Marne
(34.0056°N, 117.9064°W)
Time: 23:16:17
(UTC+00:00)
Language:

STARLINK-1102 - Orbit

View from above orbital plane
View from above orbital plane
View from above satellite
View from above satellite

Ground track
Ground track

The orbit data is extracted from the following two-line orbital elements,

1 44920U 20001G   21138.47651395 -.00000979  00000-0 -46859-4 0  9990
2 44920  53.0589 310.5615 0001609  96.0182 264.0990 15.06392026 75145
Epoch (UTC): 18 May 2021 11:26:10
Eccentricity: 0.0001609
inclination: 53.0589°
perigee height: 546 km
apogee height: 548 km
right ascension of ascending node: 310.5615°
argument of perigee: 96.0182°
revolutions per day: 15.06392026
mean anomaly at epoch: 264.0990°
orbit number at epoch: 7514

The dashed part of the orbit path shows where the satellite is in the earth's shadow,  

DLR